Darstellungsparameter: Aktuell verwendete Einstellungen:
Skalierung der Graphiken ... ?
xyx+y,   Skalierungsfaktor:      Skalierung: Modus: x, Faktor: 1
Darstellungszeitraum ... ?
Vom - - bis: - -   Zeitraum: 01.04.2020 - 03.04.2020
Min/Max/Avg-Anzeige ... ?
Zeige MMA aktuell
Zeige MMA Monat
Zeige MMA alles
Zeige --A aktuell
Zeige --A Monat
Zeige --A alles
Keine MMA-Anzeige
MMA:
Keine MMA-Graphiken
MMA-Basis: 01.04.2020 - 03.04.2020
Quicknavigation für Darstellung... ?
Tage:      1T, 2T, 3T, 5T -1T -2T -3T -5T +1T +2T +3T +5T
Wochen: 1W, 2W, 3W -1W -2W -3W +1W +2W +3W
Monate: 1M, 3M, 6M -1M -3M -6M +1M +3M +6M
Jahre:    1J, 3J, 5J, 10J -1J -3J -5J -10J +1J +3J +5J +10J
Nutze für die Darstellung ... ?
Originaldaten oder Mittelwerte auf ...
Stundenbasis Tagesbasis Wochenbasis
Monatsbasis Jahresbasis      Datenbasis: Original-Daten
Darstellen als:
Statistik (Auto) Statistik J:M      Darstellung:
Zur Graphik,    zurück zur Übersicht aller Sensoren.
 
Tabellarische Datenbersicht: ?
 
Sensor: Nr:Datum:Temp:Feuchte:
Aussen-T/F 1 01-04-2020 00:01:17 1.2 C 31 %
2 01-04-2020 00:11:17 0 C 35 %
3 01-04-2020 00:21:17 0.8 C 33 %
4 01-04-2020 00:31:17 0.6 C 32 %
5 01-04-2020 00:41:17 0.5 C 33 %
6 01-04-2020 00:51:17 -0.3 C 35 %
7 01-04-2020 01:01:17 -0.1 C 36 %
8 01-04-2020 01:11:17 -0.3 C 35 %
9 01-04-2020 01:21:17 -1 C 37 %
10 01-04-2020 01:30:18 -1.4 C 38 %
11 01-04-2020 01:40:18 -1.7 C 38 %
12 01-04-2020 01:51:17 -1.9 C 38 %
13 01-04-2020 02:01:17 -1.9 C 38 %
14 01-04-2020 02:11:17 -2 C 38 %
15 01-04-2020 02:21:17 -2.1 C 38 %
16 01-04-2020 02:31:17 -2.3 C 39 %
17 01-04-2020 02:41:17 -2.4 C 38 %
18 01-04-2020 02:50:18 -2.4 C 39 %
19 01-04-2020 03:01:17 -2.5 C 38 %
20 01-04-2020 03:11:17 -2.6 C 38 %
21 01-04-2020 03:21:17 -2.8 C 39 %
22 01-04-2020 03:31:17 -2.7 C 38 %
23 01-04-2020 03:41:18 -3 C 38 %
24 01-04-2020 03:51:17 -3 C 39 %
25 01-04-2020 04:01:17 -2.8 C 39 %
Sensor: Nr:Datum:Temp:Feuchte:
Aussen-T/F 26 01-04-2020 04:11:17 -3.1 C 38 %
27 01-04-2020 04:21:17 -3.2 C 39 %
28 01-04-2020 04:31:18 -3.5 C 38 %
29 01-04-2020 04:41:19 -3.4 C 39 %
30 01-04-2020 04:51:17 -3.5 C 39 %
31 01-04-2020 05:01:18 -3.6 C 39 %
32 01-04-2020 05:11:19 -3.8 C 40 %
33 01-04-2020 05:21:17 -3.8 C 40 %
34 01-04-2020 05:31:18 -3.8 C 40 %
35 01-04-2020 05:41:18 -4 C 40 %
36 01-04-2020 05:51:17 -4.2 C 40 %
37 01-04-2020 06:01:18 -4.2 C 40 %
38 01-04-2020 06:11:18 -4 C 40 %
39 01-04-2020 06:21:17 -4.2 C 40 %
40 01-04-2020 06:31:17 -4.2 C 41 %
41 01-04-2020 06:41:17 -4.3 C 41 %
42 01-04-2020 06:51:17 -4.5 C 41 %
43 01-04-2020 07:01:18 -4.6 C 41 %
44 01-04-2020 07:11:19 -4.7 C 41 %
45 01-04-2020 07:21:17 -4.5 C 41 %
46 01-04-2020 07:31:18 -4.4 C 41 %
47 01-04-2020 07:41:18 -4.5 C 41 %
48 01-04-2020 07:51:17 -4.3 C 41 %
49 01-04-2020 08:01:17 -4.2 C 41 %
50 01-04-2020 08:11:17 -4.2 C 41 %
Sensor: Nr:Datum:Temp:Feuchte:
Aussen-T/F 51 01-04-2020 08:21:17 -3.7 C 41 %
52 01-04-2020 08:31:17 -3.8 C 41 %
53 01-04-2020 08:41:17 -3.7 C 41 %
54 01-04-2020 08:51:17 -3.4 C 40 %
55 01-04-2020 09:01:17 -3.4 C 40 %
56 01-04-2020 09:11:17 -2.7 C 40 %
57 01-04-2020 09:21:17 -2.6 C 40 %
58 01-04-2020 09:31:17 -2.5 C 40 %
59 01-04-2020 09:41:17 -2.1 C 40 %
60 01-04-2020 09:51:17 -1.5 C 39 %
61 01-04-2020 10:01:17 -1 C 39 %
62 01-04-2020 10:11:17 -0.9 C 40 %
63 01-04-2020 10:21:17 -0.4 C 40 %
64 01-04-2020 10:31:18 0.5 C 39 %
65 01-04-2020 10:41:18 1 C 37 %
66 01-04-2020 10:51:17 1.6 C 36 %
67 01-04-2020 11:01:17 2.4 C 35 %
68 01-04-2020 11:11:17 3.2 C 33 %
69 01-04-2020 11:21:17 4.2 C 29 %
70 01-04-2020 11:31:17 4.8 C 20 %
71 01-04-2020 11:41:17 5.3 C 20 %
72 01-04-2020 11:51:17 6 C 20 %
73 01-04-2020 12:01:17 6.6 C 20 %
74 01-04-2020 12:11:18 7.1 C 20 %
75 01-04-2020 12:21:17 8.9 C 20 %
Sensor: Nr:Datum:Temp:Feuchte:
Aussen-T/F 76 01-04-2020 12:31:17 10.3 C 20 %
77 01-04-2020 12:41:17 9.2 C 20 %
78 01-04-2020 12:51:17 8 C 20 %
79 01-04-2020 13:01:17 9.3 C 20 %
80 01-04-2020 13:11:17 9.3 C 20 %
81 01-04-2020 13:21:16 8.6 C 20 %
82 01-04-2020 13:31:17 9.2 C 20 %
83 01-04-2020 13:41:17 9.6 C 20 %
84 01-04-2020 13:51:17 10 C 20 %
85 01-04-2020 14:01:17 10.3 C 20 %
86 01-04-2020 14:11:17 10.7 C 20 %
87 01-04-2020 14:21:17 13.2 C 20 %
88 01-04-2020 14:31:16 15.9 C 20 %
89 01-04-2020 14:41:16 16.3 C 20 %
90 01-04-2020 14:51:17 13.7 C 20 %
91 01-04-2020 15:01:17 14.2 C 20 %
92 01-04-2020 15:11:17 17.2 C 20 %
93 01-04-2020 15:21:17 16.8 C 20 %
94 01-04-2020 15:31:16 16.3 C 20 %
95 01-04-2020 15:41:16 18.2 C 20 %
96 01-04-2020 15:51:17 19.5 C 20 %
97 01-04-2020 16:01:16 18.7 C 20 %
98 01-04-2020 16:11:16 18.7 C 20 %
99 01-04-2020 16:21:16 19.7 C 20 %
100 01-04-2020 16:31:17 21.3 C 20 %
Sensor: Nr:Datum:Temp:Feuchte:
Aussen-T/F 101 01-04-2020 16:41:17 15.5 C 20 %
102 01-04-2020 16:51:16 18.4 C 20 %
103 01-04-2020 17:01:16 17.2 C 20 %
104 01-04-2020 17:11:16 17.4 C 20 %
105 01-04-2020 17:21:17 17.7 C 20 %
106 01-04-2020 17:31:17 18.5 C 20 %
107 01-04-2020 17:41:17 16.8 C 20 %
108 01-04-2020 17:51:17 15.8 C 20 %
109 01-04-2020 18:01:17 12.6 C 20 %
110 01-04-2020 18:11:17 12 C 20 %
111 01-04-2020 18:21:16 12.1 C 20 %
112 01-04-2020 18:31:17 11.7 C 20 %
113 01-04-2020 18:41:17 11.8 C 20 %
114 01-04-2020 18:51:16 11.6 C 20 %
115 01-04-2020 19:01:17 11 C 20 %
116 01-04-2020 19:11:17 10.7 C 20 %
117 01-04-2020 19:21:17 10.4 C 20 %
118 01-04-2020 19:31:17 9.9 C 20 %
119 01-04-2020 19:41:17 9.6 C 20 %
120 01-04-2020 19:51:16 8.9 C 20 %
121 01-04-2020 20:01:17 8.1 C 20 %
122 01-04-2020 20:11:17 7.8 C 20 %
123 01-04-2020 20:21:16 8.1 C 20 %
124 01-04-2020 20:31:16 7.1 C 20 %
125 01-04-2020 20:41:16 6.2 C 20 %
Sensor: Nr:Datum:Temp:Feuchte:
Aussen-T/F 126 01-04-2020 20:51:16 5.9 C 20 %
127 01-04-2020 21:01:16 6 C 20 %
128 01-04-2020 21:11:16 6 C 20 %
129 01-04-2020 21:21:16 5.7 C 20 %
130 01-04-2020 21:31:16 5.7 C 20 %
131 01-04-2020 21:41:16 5.4 C 20 %
132 01-04-2020 21:51:16 4 C 21 %
133 01-04-2020 22:01:16 4.2 C 21 %
134 01-04-2020 22:11:16 3.7 C 26 %
135 01-04-2020 22:21:16 3.2 C 26 %
136 01-04-2020 22:31:16 2.5 C 29 %
137 01-04-2020 22:41:16 2.6 C 28 %
138 01-04-2020 22:51:16 2 C 30 %
139 01-04-2020 23:01:17 1.7 C 33 %
140 01-04-2020 23:11:17 1.7 C 32 %
141 01-04-2020 23:21:16 1.4 C 34 %
142 01-04-2020 23:31:16 1.2 C 34 %
143 01-04-2020 23:41:16 1 C 35 %
144 01-04-2020 23:51:16 1.1 C 34 %
145 02-04-2020 00:01:17 1 C 35 %
146 02-04-2020 00:11:17 0.4 C 36 %
147 02-04-2020 00:21:16 0.4 C 36 %
148 02-04-2020 00:31:17 0.2 C 36 %
149 02-04-2020 00:41:17 0.3 C 37 %
150 02-04-2020 00:51:16 0.3 C 36 %
Sensor: Nr:Datum:Temp:Feuchte:
Aussen-T/F 151 02-04-2020 01:01:17 0 C 37 %
152 02-04-2020 01:11:17 -0.4 C 38 %
153 02-04-2020 01:21:16 -0.6 C 38 %
154 02-04-2020 01:31:17 -0.7 C 38 %
155 02-04-2020 01:41:17 -0.7 C 38 %
156 02-04-2020 01:51:16 -0.9 C 39 %
157 02-04-2020 02:01:16 -1 C 39 %
158 02-04-2020 02:11:16 -1 C 39 %
159 02-04-2020 02:21:16 -1.2 C 39 %
160 02-04-2020 02:31:17 -1.3 C 40 %
161 02-04-2020 02:41:17 -1.6 C 40 %
162 02-04-2020 02:51:17 -1.5 C 40 %
163 02-04-2020 03:01:17 -1.5 C 40 %
164 02-04-2020 03:11:17 -1.5 C 40 %
165 02-04-2020 03:21:17 -1.3 C 40 %
166 02-04-2020 03:31:17 -1.4 C 40 %
167 02-04-2020 03:41:17 -1.6 C 40 %
168 02-04-2020 03:51:18 -1.7 C 40 %
169 02-04-2020 04:01:18 -2.1 C 40 %
170 02-04-2020 04:11:18 -1.7 C 41 %
171 02-04-2020 04:21:18 -1.6 C 40 %
172 02-04-2020 04:31:17 -2 C 40 %
173 02-04-2020 04:41:17 -2.4 C 41 %
174 02-04-2020 04:51:17 -2.7 C 41 %
175 02-04-2020 05:01:18 -2.6 C 41 %
Sensor: Nr:Datum:Temp:Feuchte:
Aussen-T/F 176 02-04-2020 05:11:18 -2.6 C 41 %
177 02-04-2020 05:21:17 -2.6 C 41 %
178 02-04-2020 05:31:18 -2.7 C 41 %
179 02-04-2020 05:41:18 -2.6 C 41 %
180 02-04-2020 05:51:17 -2.5 C 41 %
181 02-04-2020 06:01:17 -2.6 C 41 %
182 02-04-2020 06:11:17 -3 C 41 %
183 02-04-2020 06:21:17 -3 C 42 %
184 02-04-2020 06:31:17 -2.6 C 43 %
185 02-04-2020 06:41:17 -3.1 C 42 %
186 02-04-2020 06:51:17 -2.9 C 42 %
187 02-04-2020 07:01:17 -3.3 C 42 %
188 02-04-2020 07:11:17 -3 C 42 %
189 02-04-2020 07:21:17 -3.1 C 42 %
190 02-04-2020 07:31:17 -3 C 43 %
191 02-04-2020 07:41:18 -2.9 C 42 %
192 02-04-2020 07:51:17 -3 C 43 %
193 02-04-2020 08:01:17 -2.7 C 43 %
194 02-04-2020 08:11:18 -2.5 C 43 %
195 02-04-2020 08:21:17 -2.2 C 42 %
196 02-04-2020 08:31:17 -2.2 C 42 %
197 02-04-2020 08:41:17 -2 C 42 %
198 02-04-2020 08:51:17 -1.8 C 42 %
199 02-04-2020 09:01:17 -1.7 C 42 %
200 02-04-2020 09:11:17 -1.5 C 41 %
Sensor: Nr:Datum:Temp:Feuchte:
Aussen-T/F 201 02-04-2020 09:21:17 -1.3 C 41 %
202 02-04-2020 09:31:17 -1 C 41 %
203 02-04-2020 09:41:17 -0.6 C 41 %
204 02-04-2020 09:51:18 -0.3 C 41 %
205 02-04-2020 10:01:18 0.1 C 41 %
206 02-04-2020 10:11:18 0.6 C 41 %
207 02-04-2020 10:21:17 0.8 C 41 %
208 02-04-2020 10:31:17 1.7 C 40 %
209 02-04-2020 10:41:17 2.2 C 39 %
210 02-04-2020 10:51:17 3.1 C 37 %
211 02-04-2020 11:01:17 3.6 C 37 %
212 02-04-2020 11:11:17 4.6 C 35 %
213 02-04-2020 11:21:17 5.7 C 30 %
214 02-04-2020 11:31:18 6.5 C 30 %
215 02-04-2020 11:41:18 6.9 C 29 %
216 02-04-2020 11:51:17 7.4 C 27 %
217 02-04-2020 12:01:17 8.1 C 27 %
218 02-04-2020 12:11:17 8.5 C 25 %
219 02-04-2020 12:21:17 10.5 C 20 %
220 02-04-2020 12:31:18 12.2 C 20 %
221 02-04-2020 12:41:18 10.8 C 20 %
222 02-04-2020 12:51:17 10.3 C 20 %
223 02-04-2020 13:01:17 11 C 20 %
224 02-04-2020 13:11:18 11.5 C 20 %
225 02-04-2020 13:21:17 11.6 C 20 %
Sensor: Nr:Datum:Temp:Feuchte:
Aussen-T/F 226 02-04-2020 13:31:17 11.4 C 20 %
227 02-04-2020 13:41:17 12.3 C 20 %
228 02-04-2020 13:51:17 12.5 C 20 %
229 02-04-2020 14:01:17 11.8 C 20 %
230 02-04-2020 14:11:17 12.6 C 20 %
231 02-04-2020 14:21:17 15.5 C 20 %
232 02-04-2020 14:31:18 18.1 C 20 %
233 02-04-2020 14:41:18 18.3 C 20 %
234 02-04-2020 14:51:17 18.3 C 20 %
235 02-04-2020 15:01:18 19.7 C 20 %
236 02-04-2020 15:11:18 17.5 C 20 %
237 02-04-2020 15:21:17 19.2 C 20 %
238 02-04-2020 15:31:18 19.8 C 20 %
239 02-04-2020 15:41:18 19.3 C 20 %
240 02-04-2020 15:51:17 19.4 C 20 %
241 02-04-2020 16:01:17 21.3 C 20 %
242 02-04-2020 16:11:17 19.9 C 20 %
243 02-04-2020 16:21:17 16.6 C 20 %
244 02-04-2020 16:31:18 18 C 20 %
245 02-04-2020 16:41:18 17.6 C 20 %
246 02-04-2020 16:51:17 17.8 C 20 %
247 02-04-2020 17:01:17 17.3 C 20 %
248 02-04-2020 17:11:17 16.6 C 20 %
249 02-04-2020 17:21:17 15.8 C 20 %
250 02-04-2020 17:31:18 15.5 C 20 %
Sensor: Nr:Datum:Temp:Feuchte:
Aussen-T/F 251 02-04-2020 17:41:18 14.7 C 20 %
252 02-04-2020 17:51:17 14.8 C 20 %
253 02-04-2020 18:01:17 12.8 C 20 %
254 02-04-2020 18:11:17 12.2 C 20 %
255 02-04-2020 18:21:17 12.3 C 20 %
256 02-04-2020 18:31:17 11.8 C 20 %
257 02-04-2020 18:41:17 11.3 C 20 %
258 02-04-2020 18:51:17 11.1 C 20 %
259 02-04-2020 19:01:17 10.7 C 20 %
260 02-04-2020 19:11:17 10.2 C 20 %
261 02-04-2020 19:21:17 10 C 20 %
262 02-04-2020 19:31:17 9.6 C 20 %
263 02-04-2020 19:41:17 9.5 C 20 %
264 02-04-2020 19:51:17 8.7 C 20 %
265 02-04-2020 20:01:17 8.5 C 20 %
266 02-04-2020 20:11:17 8.5 C 20 %
267 02-04-2020 20:21:17 7.9 C 20 %
268 02-04-2020 20:31:17 7.8 C 20 %
269 02-04-2020 20:41:17 7.2 C 21 %
270 02-04-2020 20:51:17 6.9 C 25 %
271 02-04-2020 21:01:17 6.4 C 26 %
272 02-04-2020 21:11:17 6.3 C 27 %
273 02-04-2020 21:21:17 5.9 C 28 %
274 02-04-2020 21:31:18 5.7 C 29 %
275 02-04-2020 21:41:18 5.6 C 30 %
Sensor: Nr:Datum:Temp:Feuchte:
Aussen-T/F 276 02-04-2020 21:51:17 5.3 C 30 %
277 02-04-2020 22:01:17 5.2 C 30 %
278 02-04-2020 22:11:17 5.5 C 30 %
279 02-04-2020 22:21:17 5 C 30 %
280 02-04-2020 22:31:18 5.3 C 31 %
281 02-04-2020 22:41:18 5.2 C 31 %
282 02-04-2020 22:51:17 5.1 C 31 %
283 02-04-2020 23:01:17 4.8 C 32 %
284 02-04-2020 23:11:17 5 C 31 %
285 02-04-2020 23:21:17 5 C 31 %
286 02-04-2020 23:31:18 4.7 C 33 %
287 02-04-2020 23:41:18 3.9 C 35 %
288 02-04-2020 23:51:17 3.1 C 36 %
289 03-04-2020 00:01:18 2.7 C 38 %
290 03-04-2020 00:11:18 2.3 C 39 %
291 03-04-2020 00:21:17 2.6 C 40 %
292 03-04-2020 00:31:17 2.6 C 39 %
293 03-04-2020 00:41:17 3.2 C 38 %
294 03-04-2020 00:51:17 2.4 C 39 %
295 03-04-2020 01:01:18 2.4 C 39 %
296 03-04-2020 01:11:18 2.4 C 39 %
297 03-04-2020 01:21:17 2.6 C 39 %
298 03-04-2020 01:31:18 2.7 C 39 %
299 03-04-2020 01:41:18 2.5 C 39 %
300 03-04-2020 01:51:17 2.3 C 39 %
Sensor: Nr:Datum:Temp:Feuchte:
Aussen-T/F 301 03-04-2020 02:01:18 2.2 C 39 %
302 03-04-2020 02:11:18 2.3 C 39 %
303 03-04-2020 02:21:18 3.1 C 38 %
304 03-04-2020 02:31:18 3.2 C 38 %
305 03-04-2020 02:41:18 2.6 C 39 %
306 03-04-2020 02:51:17 2.8 C 39 %
307 03-04-2020 03:01:18 3 C 38 %
308 03-04-2020 03:11:18 3.6 C 38 %
309 03-04-2020 03:21:17 3.9 C 38 %
310 03-04-2020 03:31:17 4.4 C 36 %
311 03-04-2020 03:41:17 4.7 C 36 %
312 03-04-2020 03:51:17 4.6 C 36 %
313 03-04-2020 04:01:17 5 C 35 %
314 03-04-2020 04:11:17 5.6 C 35 %
315 03-04-2020 04:21:17 4.9 C 35 %
316 03-04-2020 04:31:18 4.7 C 36 %
317 03-04-2020 04:41:18 4.6 C 36 %
318 03-04-2020 04:51:18 4.4 C 36 %
319 03-04-2020 05:01:18 4.3 C 36 %
320 03-04-2020 05:11:18 4.5 C 36 %
321 03-04-2020 05:21:17 4.8 C 36 %
322 03-04-2020 05:31:17 4.8 C 36 %
323 03-04-2020 05:41:17 5.2 C 35 %
324 03-04-2020 05:51:17 5.3 C 35 %
325 03-04-2020 06:01:18 5.4 C 35 %
Sensor: Nr:Datum:Temp:Feuchte:
Aussen-T/F 326 03-04-2020 06:11:18 5.4 C 35 %
327 03-04-2020 06:21:17 5.1 C 35 %
328 03-04-2020 06:31:17 5.1 C 36 %
329 03-04-2020 06:41:17 5.1 C 35 %
330 03-04-2020 06:51:17 5.2 C 35 %
331 03-04-2020 07:01:17 5.7 C 35 %
332 03-04-2020 07:11:17 5.6 C 35 %
333 03-04-2020 07:21:18 5.5 C 35 %
334 03-04-2020 07:31:17 5.7 C 35 %
335 03-04-2020 07:41:17 5.6 C 35 %
336 03-04-2020 07:51:17 5.6 C 35 %
337 03-04-2020 08:01:17 5.7 C 35 %
338 03-04-2020 08:11:17 5.9 C 35 %
339 03-04-2020 08:21:18 5.9 C 35 %
340 03-04-2020 08:31:17 5.9 C 35 %
341 03-04-2020 08:41:17 6.1 C 35 %
342 03-04-2020 08:51:18 6.6 C 35 %
343 03-04-2020 09:01:17 7 C 34 %
344 03-04-2020 09:11:17 7.1 C 34 %
345 03-04-2020 09:21:18 7.6 C 34 %
346 03-04-2020 09:31:18 7.7 C 34 %
347 03-04-2020 09:41:18 8 C 33 %
348 03-04-2020 09:51:17 8.4 C 33 %
349 03-04-2020 10:01:18 8.6 C 32 %
350 03-04-2020 10:11:18 8.6 C 32 %
Sensor: Nr:Datum:Temp:Feuchte:
Aussen-T/F 351 03-04-2020 10:21:17 9 C 32 %
352 03-04-2020 10:31:18 9.4 C 32 %
353 03-04-2020 10:41:18 9.2 C 32 %
354 03-04-2020 10:51:17 9.6 C 32 %
355 03-04-2020 11:01:17 10.6 C 31 %
356 03-04-2020 11:11:17 11.2 C 29 %
357 03-04-2020 11:21:17 10.9 C 29 %
358 03-04-2020 11:31:17 11.1 C 28 %
359 03-04-2020 11:41:17 11.5 C 26 %
360 03-04-2020 11:51:17 11.4 C 26 %
361 03-04-2020 12:01:17 11.1 C 26 %
362 03-04-2020 12:11:17 11.2 C 26 %
363 03-04-2020 12:21:17 11.4 C 26 %
364 03-04-2020 12:31:17 11.6 C 25 %
365 03-04-2020 12:41:18 11.1 C 25 %
366 03-04-2020 12:51:17 11.1 C 25 %
367 03-04-2020 13:01:18 11.2 C 25 %
368 03-04-2020 13:11:18 11.7 C 25 %
369 03-04-2020 13:21:17 12.2 C 22 %
370 03-04-2020 13:31:17 11.8 C 22 %
371 03-04-2020 13:41:17 11.8 C 23 %
372 03-04-2020 13:51:17 12.2 C 22 %
373 03-04-2020 14:01:18 12.3 C 20 %
374 03-04-2020 14:11:18 11.6 C 21 %
375 03-04-2020 14:21:17 11.7 C 21 %
Sensor: Nr:Datum:Temp:Feuchte:
Aussen-T/F 376 03-04-2020 14:31:17 11.6 C 21 %
377 03-04-2020 14:41:18 11.4 C 23 %
378 03-04-2020 14:51:17 11.7 C 21 %
379 03-04-2020 15:01:17 11.8 C 20 %
380 03-04-2020 15:11:17 11.7 C 20 %
381 03-04-2020 15:21:18 11.8 C 20 %
382 03-04-2020 15:31:17 12.1 C 20 %
383 03-04-2020 15:41:17 12.5 C 20 %
384 03-04-2020 15:51:17 13.1 C 20 %
385 03-04-2020 16:01:17 12.6 C 20 %
386 03-04-2020 16:11:17 12.4 C 20 %
387 03-04-2020 16:21:17 12.4 C 20 %
388 03-04-2020 16:31:17 12.3 C 20 %
389 03-04-2020 16:41:17 12.4 C 20 %
390 03-04-2020 16:51:17 12.4 C 20 %
391 03-04-2020 17:01:17 12.2 C 20 %
392 03-04-2020 17:11:17 12.2 C 20 %
393 03-04-2020 17:21:17 12.2 C 20 %
394 03-04-2020 17:31:17 12.2 C 20 %
395 03-04-2020 17:41:17 12.4 C 20 %
396 03-04-2020 17:51:17 11.9 C 20 %
397 03-04-2020 18:01:17 11.5 C 20 %
398 03-04-2020 18:11:17 11.7 C 20 %
399 03-04-2020 18:21:17 11.5 C 20 %
400 03-04-2020 18:31:18 11.4 C 20 %
Sensor: Nr:Datum:Temp:Feuchte:
Aussen-T/F 401 03-04-2020 18:41:18 11 C 20 %
402 03-04-2020 18:51:17 11 C 20 %
403 03-04-2020 19:01:18 10.8 C 20 %
404 03-04-2020 19:11:18 10.7 C 20 %
405 03-04-2020 19:21:17 10.5 C 20 %
406 03-04-2020 19:31:17 10.2 C 20 %
407 03-04-2020 19:41:17 10.3 C 20 %
408 03-04-2020 19:51:17 9.9 C 20 %
409 03-04-2020 20:01:17 9.8 C 20 %
410 03-04-2020 20:11:17 9.5 C 20 %
411 03-04-2020 20:21:17 9.1 C 20 %
412 03-04-2020 20:31:18 9.5 C 20 %
413 03-04-2020 20:41:18 9.2 C 20 %
414 03-04-2020 20:51:18 9.1 C 20 %
415 03-04-2020 21:01:17 9.2 C 20 %
416 03-04-2020 21:11:17 9.1 C 20 %
417 03-04-2020 21:21:17 8.9 C 20 %
418 03-04-2020 21:31:17 8.7 C 20 %
419 03-04-2020 21:41:17 8.6 C 20 %
420 03-04-2020 21:51:17 8.3 C 20 %
421 03-04-2020 22:01:17 8.1 C 20 %
422 03-04-2020 22:11:17 7.9 C 20 %
423 03-04-2020 22:21:17 7.2 C 23 %
424 03-04-2020 22:31:18 6.8 C 25 %
425 03-04-2020 22:41:18 6.5 C 26 %
Sensor: Nr:Datum:Temp:Feuchte:
Aussen-T/F 426 03-04-2020 22:51:17 6.3 C 26 %
427 03-04-2020 23:01:17 6.4 C 26 %
428 03-04-2020 23:11:18 6.4 C 25 %
429 03-04-2020 23:21:18 6.2 C 26 %
430 03-04-2020 23:31:17 5.2 C 28 %
431 03-04-2020 23:41:18 5 C 29 %
432 03-04-2020 23:51:17 4.7 C 30 %
Sensor: Nr:Datum:Temp:Feuchte:
G-T/H 1 01-04-2020 00:01:17 8.8 C 62 %
2 01-04-2020 00:11:17 8.8 C 62 %
3 01-04-2020 00:21:17 8.8 C 62 %
4 01-04-2020 00:31:17 8.7 C 62 %
5 01-04-2020 00:41:17 8.7 C 62 %
6 01-04-2020 00:51:17 8.7 C 62 %
7 01-04-2020 01:01:17 8.7 C 62 %
8 01-04-2020 01:11:17 8.7 C 62 %
9 01-04-2020 01:21:17 8.7 C 62 %
10 01-04-2020 01:30:18 8.7 C 62 %
11 01-04-2020 01:40:18 8.7 C 62 %
12 01-04-2020 01:51:17 8.6 C 62 %
13 01-04-2020 02:01:17 8.6 C 62 %
14 01-04-2020 02:11:17 8.6 C 62 %
15 01-04-2020 02:21:17 8.6 C 62 %
16 01-04-2020 02:31:17 8.6 C 62 %
17 01-04-2020 02:41:17 8.6 C 62 %
18 01-04-2020 02:50:18 8.6 C 62 %
19 01-04-2020 03:01:17 8.5 C 62 %
20 01-04-2020 03:11:17 8.5 C 62 %
21 01-04-2020 03:21:17 8.5 C 62 %
22 01-04-2020 03:31:17 8.5 C 62 %
23 01-04-2020 03:41:18 8.5 C 62 %
24 01-04-2020 03:51:17 8.5 C 62 %
25 01-04-2020 04:01:17 8.5 C 62 %
Sensor: Nr:Datum:Temp:Feuchte:
G-T/H 26 01-04-2020 04:11:17 8.4 C 62 %
27 01-04-2020 04:21:17 8.4 C 62 %
28 01-04-2020 04:31:18 8.4 C 62 %
29 01-04-2020 04:41:19 8.4 C 62 %
30 01-04-2020 04:51:17 8.4 C 62 %
31 01-04-2020 05:01:18 8.3 C 61 %
32 01-04-2020 05:11:19 8.3 C 61 %
33 01-04-2020 05:21:17 8.3 C 61 %
34 01-04-2020 05:31:18 8.3 C 61 %
35 01-04-2020 05:41:18 8.3 C 61 %
36 01-04-2020 05:51:17 8.2 C 61 %
37 01-04-2020 06:01:18 8.2 C 61 %
38 01-04-2020 06:11:18 8.2 C 61 %
39 01-04-2020 06:21:17 8.2 C 61 %
40 01-04-2020 06:31:17 8.1 C 61 %
41 01-04-2020 06:41:17 8.1 C 61 %
42 01-04-2020 06:51:17 8.1 C 61 %
43 01-04-2020 07:01:18 8.1 C 61 %
44 01-04-2020 07:11:19 8.1 C 61 %
45 01-04-2020 07:21:17 8.1 C 61 %
46 01-04-2020 07:31:18 8 C 61 %
47 01-04-2020 07:41:18 8 C 61 %
48 01-04-2020 07:51:17 8 C 61 %
49 01-04-2020 08:01:17 8 C 61 %
50 01-04-2020 08:11:17 8 C 61 %
Sensor: Nr:Datum:Temp:Feuchte:
G-T/H 51 01-04-2020 08:21:17 7.9 C 62 %
52 01-04-2020 08:31:17 7.9 C 62 %
53 01-04-2020 08:41:17 7.9 C 62 %
54 01-04-2020 08:51:17 7.9 C 62 %
55 01-04-2020 09:01:17 7.9 C 62 %
56 01-04-2020 09:11:17 7.9 C 62 %
57 01-04-2020 09:21:17 7.9 C 62 %
58 01-04-2020 09:31:17 7.8 C 62 %
59 01-04-2020 09:41:17 7.8 C 62 %
60 01-04-2020 09:51:17 7.8 C 62 %
61 01-04-2020 10:01:17 7.8 C 62 %
62 01-04-2020 10:11:17 7.8 C 62 %
63 01-04-2020 10:21:17 7.8 C 62 %
64 01-04-2020 10:31:18 7.8 C 62 %
65 01-04-2020 10:41:18 7.8 C 62 %
66 01-04-2020 10:51:17 7.8 C 62 %
67 01-04-2020 11:01:17 7.7 C 62 %
68 01-04-2020 11:11:17 7.8 C 62 %
69 01-04-2020 11:21:17 7.8 C 62 %
70 01-04-2020 11:31:17 7.7 C 62 %
71 01-04-2020 11:41:17 7.7 C 63 %
72 01-04-2020 11:51:17 7.8 C 63 %
73 01-04-2020 12:01:17 7.7 C 63 %
74 01-04-2020 12:11:18 7.8 C 63 %
75 01-04-2020 12:21:17 7.8 C 63 %
Sensor: Nr:Datum:Temp:Feuchte:
G-T/H 76 01-04-2020 12:31:17 7.8 C 63 %
77 01-04-2020 12:41:17 7.7 C 63 %
78 01-04-2020 12:51:17 7.7 C 63 %
79 01-04-2020 13:01:17 7.7 C 63 %
80 01-04-2020 13:11:17 7.8 C 63 %
81 01-04-2020 13:21:16 7.8 C 64 %
82 01-04-2020 13:31:17 7.8 C 64 %
83 01-04-2020 13:41:17 7.8 C 64 %
84 01-04-2020 13:51:17 7.8 C 64 %
85 01-04-2020 14:01:17 7.8 C 64 %
86 01-04-2020 14:11:17 7.9 C 64 %
87 01-04-2020 14:21:17 7.9 C 64 %
88 01-04-2020 14:31:16 7.9 C 64 %
89 01-04-2020 14:41:16 7.9 C 64 %
90 01-04-2020 14:51:17 7.9 C 64 %
91 01-04-2020 15:01:17 7.9 C 64 %
92 01-04-2020 15:11:17 8 C 63 %
93 01-04-2020 15:21:17 8 C 62 %
94 01-04-2020 15:31:16 8 C 62 %
95 01-04-2020 15:41:16 8 C 62 %
96 01-04-2020 15:51:17 8 C 62 %
97 01-04-2020 16:01:16 8.1 C 63 %
98 01-04-2020 16:11:16 8 C 63 %
99 01-04-2020 16:21:16 8.1 C 63 %
100 01-04-2020 16:31:17 8.1 C 63 %
Sensor: Nr:Datum:Temp:Feuchte:
G-T/H 101 01-04-2020 16:41:17 8.1 C 63 %
102 01-04-2020 16:51:16 8.1 C 63 %
103 01-04-2020 17:01:16 8.1 C 63 %
104 01-04-2020 17:11:16 8.2 C 63 %
105 01-04-2020 17:21:17 8.2 C 63 %
106 01-04-2020 17:31:17 8.2 C 63 %
107 01-04-2020 17:41:17 8.2 C 63 %
108 01-04-2020 17:51:17 8.2 C 63 %
109 01-04-2020 18:01:17 8.2 C 63 %
110 01-04-2020 18:11:17 8.2 C 63 %
111 01-04-2020 18:21:16 8.2 C 63 %
112 01-04-2020 18:31:17 8.3 C 63 %
113 01-04-2020 18:41:17 8.3 C 63 %
114 01-04-2020 18:51:16 8.3 C 63 %
115 01-04-2020 19:01:17 8.3 C 63 %
116 01-04-2020 19:11:17 8.4 C 63 %
117 01-04-2020 19:21:17 8.4 C 64 %
118 01-04-2020 19:31:17 8.4 C 64 %
119 01-04-2020 19:41:17 8.4 C 64 %
120 01-04-2020 19:51:16 8.4 C 64 %
121 01-04-2020 20:01:17 8.4 C 64 %
122 01-04-2020 20:11:17 8.4 C 64 %
123 01-04-2020 20:21:16 8.4 C 64 %
124 01-04-2020 20:31:16 8.5 C 64 %
125 01-04-2020 20:41:16 8.5 C 64 %
Sensor: Nr:Datum:Temp:Feuchte:
G-T/H 126 01-04-2020 20:51:16 8.5 C 64 %
127 01-04-2020 21:01:16 8.5 C 64 %
128 01-04-2020 21:11:16 8.5 C 64 %
129 01-04-2020 21:21:16 8.5 C 64 %
130 01-04-2020 21:31:16 8.5 C 64 %
131 01-04-2020 21:41:16 8.4 C 64 %
132 01-04-2020 21:51:16 8.5 C 64 %
133 01-04-2020 22:01:16 8.5 C 64 %
134 01-04-2020 22:11:16 8.5 C 64 %
135 01-04-2020 22:21:16 8.5 C 64 %
136 01-04-2020 22:31:16 8.5 C 64 %
137 01-04-2020 22:41:16 8.5 C 64 %
138 01-04-2020 22:51:16 8.5 C 64 %
139 01-04-2020 23:01:17 8.5 C 64 %
140 01-04-2020 23:11:17 8.5 C 64 %
141 01-04-2020 23:21:16 8.5 C 64 %
142 01-04-2020 23:31:16 8.4 C 64 %
143 01-04-2020 23:41:16 8.5 C 64 %
144 01-04-2020 23:51:16 8.5 C 64 %
145 02-04-2020 00:01:17 8.5 C 64 %
146 02-04-2020 00:11:17 8.5 C 64 %
147 02-04-2020 00:21:16 8.4 C 64 %
148 02-04-2020 00:31:17 8.4 C 64 %
149 02-04-2020 00:41:17 8.4 C 64 %
150 02-04-2020 00:51:16 8.4 C 64 %
Sensor: Nr:Datum:Temp:Feuchte:
G-T/H 151 02-04-2020 01:01:17 8.4 C 64 %
152 02-04-2020 01:11:17 8.4 C 64 %
153 02-04-2020 01:21:16 8.4 C 64 %
154 02-04-2020 01:31:17 8.4 C 64 %
155 02-04-2020 01:41:17 8.4 C 64 %
156 02-04-2020 01:51:16 8.4 C 64 %
157 02-04-2020 02:01:16 8.4 C 64 %
158 02-04-2020 02:11:16 8.4 C 64 %
159 02-04-2020 02:21:16 8.4 C 64 %
160 02-04-2020 02:31:17 8.3 C 64 %
161 02-04-2020 02:41:17 8.3 C 64 %
162 02-04-2020 02:51:17 8.3 C 63 %
163 02-04-2020 03:01:17 8.3 C 63 %
164 02-04-2020 03:11:17 8.3 C 63 %
165 02-04-2020 03:21:17 8.3 C 63 %
166 02-04-2020 03:31:17 8.3 C 63 %
167 02-04-2020 03:41:17 8.2 C 63 %
168 02-04-2020 03:51:18 8.2 C 63 %
169 02-04-2020 04:01:18 8.2 C 63 %
170 02-04-2020 04:11:18 8.2 C 63 %
171 02-04-2020 04:21:18 8.2 C 63 %
172 02-04-2020 04:31:17 8.2 C 63 %
173 02-04-2020 04:41:17 8.2 C 63 %
174 02-04-2020 04:51:17 8.2 C 63 %
175 02-04-2020 05:01:18 8.2 C 63 %
Sensor: Nr:Datum:Temp:Feuchte:
G-T/H 176 02-04-2020 05:11:18 8.1 C 63 %
177 02-04-2020 05:21:17 8.1 C 63 %
178 02-04-2020 05:31:18 8.1 C 63 %
179 02-04-2020 05:41:18 8.1 C 63 %
180 02-04-2020 05:51:17 8.1 C 63 %
181 02-04-2020 06:01:17 8.1 C 63 %
182 02-04-2020 06:11:17 8 C 63 %
183 02-04-2020 06:21:17 8 C 63 %
184 02-04-2020 06:31:17 8 C 63 %
185 02-04-2020 06:41:17 8 C 63 %
186 02-04-2020 06:51:17 8 C 62 %
187 02-04-2020 07:01:17 8 C 62 %
188 02-04-2020 07:11:17 8 C 62 %
189 02-04-2020 07:21:17 7.9 C 63 %
190 02-04-2020 07:31:17 7.9 C 63 %
191 02-04-2020 07:41:18 7.9 C 63 %
192 02-04-2020 07:51:17 7.9 C 63 %
193 02-04-2020 08:01:17 7.9 C 63 %
194 02-04-2020 08:11:18 7.9 C 63 %
195 02-04-2020 08:21:17 7.8 C 63 %
196 02-04-2020 08:31:17 7.9 C 63 %
197 02-04-2020 08:41:17 7.8 C 63 %
198 02-04-2020 08:51:17 7.8 C 63 %
199 02-04-2020 09:01:17 7.8 C 63 %
200 02-04-2020 09:11:17 7.8 C 63 %
Sensor: Nr:Datum:Temp:Feuchte:
G-T/H 201 02-04-2020 09:21:17 7.8 C 63 %
202 02-04-2020 09:31:17 7.8 C 63 %
203 02-04-2020 09:41:17 7.8 C 63 %
204 02-04-2020 09:51:18 7.8 C 63 %
205 02-04-2020 10:01:18 7.7 C 63 %
206 02-04-2020 10:11:18 7.7 C 63 %
207 02-04-2020 10:21:17 7.7 C 63 %
208 02-04-2020 10:31:17 7.7 C 63 %
209 02-04-2020 10:41:17 7.7 C 63 %
210 02-04-2020 10:51:17 7.6 C 64 %
211 02-04-2020 11:01:17 7.6 C 64 %
212 02-04-2020 11:11:17 7.7 C 64 %
213 02-04-2020 11:21:17 7.7 C 64 %
214 02-04-2020 11:31:18 7.6 C 64 %
215 02-04-2020 11:41:18 7.7 C 64 %
216 02-04-2020 11:51:17 7.7 C 64 %
217 02-04-2020 12:01:17 7.7 C 64 %
218 02-04-2020 12:11:17 7.7 C 65 %
219 02-04-2020 12:21:17 7.7 C 65 %
220 02-04-2020 12:31:18 7.7 C 65 %
221 02-04-2020 12:41:18 7.7 C 65 %
222 02-04-2020 12:51:17 7.8 C 65 %
223 02-04-2020 13:01:17 7.8 C 65 %
224 02-04-2020 13:11:18 7.8 C 65 %
225 02-04-2020 13:21:17 7.8 C 65 %
Sensor: Nr:Datum:Temp:Feuchte:
G-T/H 226 02-04-2020 13:31:17 7.8 C 65 %
227 02-04-2020 13:41:17 7.8 C 65 %
228 02-04-2020 13:51:17 7.8 C 65 %
229 02-04-2020 14:01:17 7.9 C 65 %
230 02-04-2020 14:11:17 7.9 C 65 %
231 02-04-2020 14:21:17 7.9 C 65 %
232 02-04-2020 14:31:18 8 C 65 %
233 02-04-2020 14:41:18 7.9 C 66 %
234 02-04-2020 14:51:17 8 C 65 %
235 02-04-2020 15:01:18 8 C 65 %
236 02-04-2020 15:11:18 8 C 65 %
237 02-04-2020 15:21:17 8 C 65 %
238 02-04-2020 15:31:18 8.1 C 65 %
239 02-04-2020 15:41:18 8.1 C 65 %
240 02-04-2020 15:51:17 8.1 C 65 %
241 02-04-2020 16:01:17 8.1 C 65 %
242 02-04-2020 16:11:17 8.1 C 65 %
243 02-04-2020 16:21:17 8.1 C 65 %
244 02-04-2020 16:31:18 8.2 C 65 %
245 02-04-2020 16:41:18 8.2 C 65 %
246 02-04-2020 16:51:17 8.2 C 65 %
247 02-04-2020 17:01:17 8.3 C 65 %
248 02-04-2020 17:11:17 8.3 C 65 %
249 02-04-2020 17:21:17 8.3 C 65 %
250 02-04-2020 17:31:18 8.3 C 65 %
Sensor: Nr:Datum:Temp:Feuchte:
G-T/H 251 02-04-2020 17:41:18 8.3 C 65 %
252 02-04-2020 17:51:17 8.4 C 65 %
253 02-04-2020 18:01:17 8.4 C 65 %
254 02-04-2020 18:11:17 8.4 C 65 %
255 02-04-2020 18:21:17 8.4 C 65 %
256 02-04-2020 18:31:17 8.4 C 65 %
257 02-04-2020 18:41:17 8.5 C 65 %
258 02-04-2020 18:51:17 8.5 C 65 %
259 02-04-2020 19:01:17 8.5 C 65 %
260 02-04-2020 19:11:17 8.5 C 65 %
261 02-04-2020 19:21:17 8.6 C 65 %
262 02-04-2020 19:31:17 8.6 C 66 %
263 02-04-2020 19:41:17 8.6 C 66 %
264 02-04-2020 19:51:17 8.6 C 66 %
265 02-04-2020 20:01:17 8.6 C 66 %
266 02-04-2020 20:11:17 8.6 C 66 %
267 02-04-2020 20:21:17 8.6 C 66 %
268 02-04-2020 20:31:17 8.6 C 66 %
269 02-04-2020 20:41:17 8.6 C 66 %
270 02-04-2020 20:51:17 8.6 C 66 %
271 02-04-2020 21:01:17 8.6 C 66 %
272 02-04-2020 21:11:17 8.7 C 66 %
273 02-04-2020 21:21:17 8.7 C 66 %
274 02-04-2020 21:31:18 8.7 C 66 %
275 02-04-2020 21:41:18 8.7 C 66 %
Sensor: Nr:Datum:Temp:Feuchte:
G-T/H 276 02-04-2020 21:51:17 8.7 C 66 %
277 02-04-2020 22:01:17 8.7 C 66 %
278 02-04-2020 22:11:17 8.7 C 67 %
279 02-04-2020 22:21:17 8.7 C 67 %
280 02-04-2020 22:31:18 8.7 C 67 %
281 02-04-2020 22:41:18 8.7 C 67 %
282 02-04-2020 22:51:17 8.7 C 67 %
283 02-04-2020 23:01:17 8.7 C 67 %
284 02-04-2020 23:11:17 8.7 C 67 %
285 02-04-2020 23:21:17 8.7 C 67 %
286 02-04-2020 23:31:18 8.7 C 67 %
287 02-04-2020 23:41:18 8.7 C 67 %
288 02-04-2020 23:51:17 8.7 C 67 %
289 03-04-2020 00:01:18 8.7 C 67 %
290 03-04-2020 00:11:18 8.7 C 67 %
291 03-04-2020 00:21:17 8.7 C 67 %
292 03-04-2020 00:31:17 8.7 C 67 %
293 03-04-2020 00:41:17 8.7 C 67 %
294 03-04-2020 00:51:17 8.7 C 67 %
295 03-04-2020 01:01:18 8.7 C 67 %
296 03-04-2020 01:11:18 8.7 C 67 %
297 03-04-2020 01:21:17 8.7 C 67 %
298 03-04-2020 01:31:18 8.7 C 67 %
299 03-04-2020 01:41:18 8.9 C 67 %
300 03-04-2020 01:51:17 8.7 C 66 %
Sensor: Nr:Datum:Temp:Feuchte:
G-T/H 301 03-04-2020 02:01:18 8.7 C 66 %
302 03-04-2020 02:11:18 8.7 C 66 %
303 03-04-2020 02:21:18 8.7 C 66 %
304 03-04-2020 02:31:18 8.7 C 66 %
305 03-04-2020 02:41:18 8.7 C 66 %
306 03-04-2020 02:51:17 8.7 C 66 %
307 03-04-2020 03:01:18 8.7 C 66 %
308 03-04-2020 03:11:18 8.7 C 66 %
309 03-04-2020 03:21:17 8.7 C 66 %
310 03-04-2020 03:31:17 8.7 C 66 %
311 03-04-2020 03:41:17 8.7 C 67 %
312 03-04-2020 03:51:17 8.7 C 67 %
313 03-04-2020 04:01:17 8.7 C 67 %
314 03-04-2020 04:11:17 8.7 C 67 %
315 03-04-2020 04:21:17 8.7 C 67 %
316 03-04-2020 04:31:18 8.7 C 67 %
317 03-04-2020 04:41:18 8.7 C 67 %
318 03-04-2020 04:51:18 8.7 C 67 %
319 03-04-2020 05:01:18 8.7 C 67 %
320 03-04-2020 05:11:18 8.7 C 67 %
321 03-04-2020 05:21:17 8.7 C 67 %
322 03-04-2020 05:31:17 8.7 C 67 %
323 03-04-2020 05:41:17 8.7 C 67 %
324 03-04-2020 05:51:17 8.7 C 67 %
325 03-04-2020 06:01:18 8.7 C 67 %
Sensor: Nr:Datum:Temp:Feuchte:
G-T/H 326 03-04-2020 06:11:18 8.7 C 67 %
327 03-04-2020 06:21:17 8.7 C 67 %
328 03-04-2020 06:31:17 8.6 C 67 %
329 03-04-2020 06:41:17 8.6 C 67 %
330 03-04-2020 06:51:17 8.7 C 67 %
331 03-04-2020 07:01:17 8.6 C 67 %
332 03-04-2020 07:11:17 8.6 C 67 %
333 03-04-2020 07:21:18 8.6 C 67 %
334 03-04-2020 07:31:17 8.6 C 67 %
335 03-04-2020 07:41:17 8.6 C 67 %
336 03-04-2020 07:51:17 8.6 C 67 %
337 03-04-2020 08:01:17 8.6 C 67 %
338 03-04-2020 08:11:17 8.6 C 67 %
339 03-04-2020 08:21:18 8.6 C 67 %
340 03-04-2020 08:31:17 8.6 C 67 %
341 03-04-2020 08:41:17 8.7 C 67 %
342 03-04-2020 08:51:18 8.7 C 67 %
343 03-04-2020 09:01:17 8.7 C 67 %
344 03-04-2020 09:11:17 8.7 C 67 %
345 03-04-2020 09:21:18 8.7 C 67 %
346 03-04-2020 09:31:18 8.7 C 67 %
347 03-04-2020 09:41:18 8.7 C 67 %
348 03-04-2020 09:51:17 8.7 C 67 %
349 03-04-2020 10:01:18 8.7 C 68 %
350 03-04-2020 10:11:18 8.7 C 68 %
Sensor: Nr:Datum:Temp:Feuchte:
G-T/H 351 03-04-2020 10:21:17 8.7 C 68 %
352 03-04-2020 10:31:18 8.7 C 68 %
353 03-04-2020 10:41:18 8.7 C 68 %
354 03-04-2020 10:51:17 8.7 C 68 %
355 03-04-2020 11:01:17 8.7 C 68 %
356 03-04-2020 11:11:17 8.7 C 68 %
357 03-04-2020 11:21:17 8.7 C 68 %
358 03-04-2020 11:31:17 8.8 C 68 %
359 03-04-2020 11:41:17 8.7 C 68 %
360 03-04-2020 11:51:17 8.8 C 68 %
361 03-04-2020 12:01:17 8.8 C 68 %
362 03-04-2020 12:11:17 8.8 C 68 %
363 03-04-2020 12:21:17 8.8 C 68 %
364 03-04-2020 12:31:17 8.9 C 68 %
365 03-04-2020 12:41:18 8.9 C 68 %
366 03-04-2020 12:51:17 8.9 C 68 %
367 03-04-2020 13:01:18 8.9 C 68 %
368 03-04-2020 13:11:18 9 C 67 %
369 03-04-2020 13:21:17 9.1 C 67 %
370 03-04-2020 13:31:17 9.2 C 66 %
371 03-04-2020 13:41:17 9.3 C 65 %
372 03-04-2020 13:51:17 9.4 C 64 %
373 03-04-2020 14:01:18 9.4 C 63 %
374 03-04-2020 14:11:18 9.5 C 62 %
375 03-04-2020 14:21:17 9.5 C 62 %
Sensor: Nr:Datum:Temp:Feuchte:
G-T/H 376 03-04-2020 14:31:17 9.5 C 61 %
377 03-04-2020 14:41:18 9.6 C 61 %
378 03-04-2020 14:51:17 9.6 C 61 %
379 03-04-2020 15:01:17 9.6 C 60 %
380 03-04-2020 15:11:17 9.7 C 60 %
381 03-04-2020 15:21:18 9.7 C 59 %
382 03-04-2020 15:31:17 9.7 C 59 %
383 03-04-2020 15:41:17 9.8 C 59 %
384 03-04-2020 15:51:17 9.8 C 59 %
385 03-04-2020 16:01:17 9.9 C 59 %
386 03-04-2020 16:11:17 9.9 C 58 %
387 03-04-2020 16:21:17 10 C 57 %
388 03-04-2020 16:31:17 10 C 56 %
389 03-04-2020 16:41:17 10.1 C 56 %
390 03-04-2020 16:51:17 10.1 C 55 %
391 03-04-2020 17:01:17 10.1 C 55 %
392 03-04-2020 17:11:17 10.1 C 55 %
393 03-04-2020 17:21:17 10.1 C 54 %
394 03-04-2020 17:31:17 10.1 C 54 %
395 03-04-2020 17:41:17 10.2 C 54 %
396 03-04-2020 17:51:17 10.2 C 54 %
397 03-04-2020 18:01:17 10.1 C 54 %
398 03-04-2020 18:11:17 10.1 C 53 %
399 03-04-2020 18:21:17 10.2 C 53 %
400 03-04-2020 18:31:18 10.2 C 53 %
Sensor: Nr:Datum:Temp:Feuchte:
G-T/H 401 03-04-2020 18:41:18 10.2 C 53 %
402 03-04-2020 18:51:17 10.1 C 53 %
403 03-04-2020 19:01:18 10.1 C 53 %
404 03-04-2020 19:11:18 10.1 C 54 %
405 03-04-2020 19:21:17 10.2 C 54 %
406 03-04-2020 19:31:17 10.1 C 54 %
407 03-04-2020 19:41:17 10.1 C 53 %
408 03-04-2020 19:51:17 10.1 C 53 %
409 03-04-2020 20:01:17 10.1 C 53 %
410 03-04-2020 20:11:17 10.1 C 52 %
411 03-04-2020 20:21:17 10 C 52 %
412 03-04-2020 20:31:18 10 C 51 %
413 03-04-2020 20:41:18 10 C 50 %
414 03-04-2020 20:51:18 10 C 50 %
415 03-04-2020 21:01:17 10 C 50 %
416 03-04-2020 21:11:17 9.9 C 50 %
417 03-04-2020 21:21:17 9.9 C 49 %
418 03-04-2020 21:31:17 9.8 C 48 %
419 03-04-2020 21:41:17 9.8 C 48 %
420 03-04-2020 21:51:17 9.8 C 48 %
421 03-04-2020 22:01:17 9.7 C 48 %
422 03-04-2020 22:11:17 9.7 C 47 %
423 03-04-2020 22:21:17 9.5 C 47 %
424 03-04-2020 22:31:18 9.4 C 47 %
425 03-04-2020 22:41:18 9.2 C 47 %
Sensor: Nr:Datum:Temp:Feuchte:
G-T/H 426 03-04-2020 22:51:17 9.1 C 47 %
427 03-04-2020 23:01:17 9.1 C 47 %
428 03-04-2020 23:11:18 9.2 C 47 %
429 03-04-2020 23:21:18 9.3 C 47 %
430 03-04-2020 23:31:17 8.9 C 47 %
431 03-04-2020 23:41:18 8.9 C 47 %
432 03-04-2020 23:51:17 8.7 C 47 %

Legende:
   Min
   Max


Maximal/Minimal-Werte vom 01.04.2020 - 03.04.2020

Sensor Min Max Avg
Temp
(Aussen-T/F)
-4.7 °C
01-04-2020  07:11:19
21.3 °C
01-04-2020  16:31:17
5.79 °C
Feuchte
(Aussen-T/F)
20 %
01-04-2020  11:31:17
43 %
02-04-2020  06:31:17
29.8 %
Temp
(G-T/H)
7.6 °C
02-04-2020  10:51:17
10.2 °C
03-04-2020  17:41:17
8.52 °C
Feuchte
(G-T/H)
47 %
03-04-2020  22:11:17
68 %
03-04-2020  10:01:18
62.78 %

Die Daten stammen von einer Davis Vantage Pro 2 Wetter-Station und werden unter Linux mit der Software wview2wettercgi und aufbereitet. Alle Angaben erfolgen ohne Gewähr für ihre Vollständigkeit oder Richtigkeit.
Kontakt: Rainer Krienke krienke@uni-koblenz.de . Meine Webseiten an der Uni Koblenz oder privat.
Version: $Revision: 0.78 $